| time (UTC) | temp F | wind direction | speed MPH | gust MPH | rain 1hr in | rain 24hr in | rain mn in | humidity % | barometer mb |
| 20260906101816 | 58 | 350 | 0.0 | 0.0 | 0.00 | 0.17 | 0.00 | 91 | 1015.8 |
| 20260906100325 | 58 | 24 | 0.0 | 0.0 | 0.00 | 0.17 | 0.00 | 90 | 1015.7 |
| 20260906094832 | 58 | 60 | 0.0 | 0.0 | 0.00 | 0.17 | 0.00 | 91 | 1015.4 |
| 20260906093333 | 58 | 38 | 0.0 | 0.0 | 0.00 | 0.17 | 0.00 | 91 | 1015.4 |
| 20260906091827 | 58 | 15 | 0.0 | 0.0 | 0.00 | 0.17 | 0.00 | 91 | 1015.4 |
| 20260906090324 | 58 | 15 | 0.0 | 0.0 | 0.00 | 0.17 | 0.00 | 90 | 1015.5 |
| 20260906084830 | 59 | 33 | 0.0 | 0.0 | 0.00 | 0.17 | 0.00 | 90 | 1015.4 |
| 20260906083325 | 59 | 69 | 0.0 | 0.0 | 0.00 | 0.17 | 0.00 | 88 | 1015.0 |
| 20260906081840 | 60 | 69 | 0.0 | 0.0 | 0.00 | 0.17 | 0.00 | 88 | 1014.8 |
| 20260906080316 | 61 | 69 | 0.0 | 0.0 | 0.00 | 0.17 | 0.00 | 86 | 1014.8 |
| 20260906074847 | 61 | 69 | 0.0 | 0.0 | 0.00 | 0.17 | 0.00 | 85 | 1014.6 |
| 20260906073322 | 62 | 73 | 0.0 | 0.0 | 0.00 | 0.17 | 0.00 | 85 | 1014.6 |
| 20260906071816 | 62 | 90 | 0.0 | 1.0 | 0.00 | 0.17 | 0.00 | 85 | 1014.5 |
| 20260906070317 | 62 | 100 | 0.0 | 2.0 | 0.00 | 0.17 | 0.00 | 83 | 1014.6 |
| 20260906064818 | 63 | 73 | 0.0 | 1.0 | 0.00 | 0.17 | 0.00 | 83 | 1014.8 |
| 20260906063352 | 63 | 69 | 1.0 | 3.0 | 0.00 | 0.17 | 0.00 | 82 | 1014.6 |
| 20260906061835 | 64 | 69 | 1.0 | 3.0 | 0.00 | 0.17 | 0.00 | 81 | 1014.7 |
| 20260906060317 | 65 | 86 | 2.0 | 5.0 | 0.00 | 0.17 | 0.00 | 81 | 1014.6 |
| 20260906054818 | 65 | 72 | 3.0 | 6.0 | 0.00 | 0.17 | 0.00 | 81 | 1014.6 |
| 20260906053318 | 65 | 82 | 3.0 | 6.0 | 0.00 | 0.17 | 0.00 | 81 | 1014.5 |
| 20260906051831 | 66 | 99 | 1.0 | 2.0 | 0.00 | 0.17 | 0.00 | 82 | 1014.5 |
| 20260906050328 | 66 | 82 | 1.0 | 3.0 | 0.00 | 0.17 | 0.00 | 80 | 1014.4 |
| 20260906044841 | 67 | 94 | 2.0 | 5.0 | 0.00 | 0.17 | 0.00 | 80 | 1014.3 |
| 20260906043337 | 67 | 75 | 3.0 | 5.0 | 0.00 | 0.17 | 0.00 | 80 | 1014.2 |
| 20260906041827 | 67 | 99 | 3.0 | 6.0 | 0.00 | 0.17 | 0.00 | 82 | 1014.0 |
| 20260906034830 | 68 | 84 | 2.0 | 4.0 | 0.00 | 0.17 | 0.17 | 83 | 1013.8 |
| 20260906033324 | 68 | 104 | 1.0 | 3.0 | 0.00 | 0.17 | 0.17 | 83 | 1013.6 |
| 20260906031839 | 69 | 98 | 0.0 | 0.0 | 0.00 | 0.17 | 0.17 | 84 | 1013.7 |
| 20260906030330 | 70 | 117 | 0.0 | 1.0 | 0.00 | 0.17 | 0.17 | 85 | 1013.5 |
| 20260906024832 | 70 | 86 | 0.0 | 4.0 | 0.00 | 0.17 | 0.17 | 86 | 1013.5 |
| 20260906023331 | 69 | 334 | 0.0 | 0.0 | 0.00 | 0.17 | 0.17 | 93 | 1013.3 |
| 20260906021844 | 70 | 333 | 0.0 | 1.0 | 0.00 | 0.17 | 0.17 | 93 | 1013.2 |
| 20260906020345 | 70 | 301 | 0.0 | 0.0 | 0.00 | 0.17 | 0.17 | 92 | 1013.0 |
| 20260906014825 | 70 | 302 | 0.0 | 0.0 | 0.00 | 0.17 | 0.17 | 92 | 1012.8 |
| 20260906013323 | 71 | 302 | 0.0 | 0.0 | 0.00 | 0.17 | 0.17 | 92 | 1013.0 |
| 20260906011855 | 71 | 315 | 0.0 | 0.0 | 0.00 | 0.17 | 0.17 | 92 | 1012.7 |
| 20260906010335 | 71 | 315 | 0.0 | 1.0 | 0.00 | 0.17 | 0.17 | 91 | 1012.5 |
| 20260906004843 | 71 | 276 | 0.0 | 2.0 | 0.00 | 0.17 | 0.17 | 91 | 1012.4 |
| 20260906003340 | 71 | 286 | 0.0 | 3.0 | 0.00 | 0.17 | 0.17 | 90 | 1012.4 |
| 20260906001836 | 72 | 330 | 0.0 | 2.0 | 0.00 | 0.17 | 0.17 | 88 | 1012.3 |
| 20260906000328 | 73 | 344 | 2.0 | 6.0 | 0.00 | 0.17 | 0.17 | 87 | 1012.2 |
| 20260905234837 | 75 | 5 | 0.0 | 1.0 | 0.00 | 0.17 | 0.17 | 82 | 1012.5 |
| 20260905233347 | 76 | 43 | 0.0 | 2.0 | 0.00 | 0.17 | 0.17 | 80 | 1012.4 |
| 20260905231857 | 76 | 88 | 0.0 | 3.0 | 0.00 | 0.17 | 0.17 | 78 | 1012.2 |
| 20260905230336 | 77 | 53 | 2.0 | 4.0 | 0.00 | 0.17 | 0.17 | 78 | 1012.2 |
| 20260905223334 | 76 | 70 | 5.0 | 8.0 | 0.00 | 0.17 | 0.17 | 78 | 1012.3 |
| 20260905221828 | 76 | 57 | 3.0 | 9.0 | 0.00 | 0.17 | 0.17 | 79 | 1012.2 |
| 20260905220325 | 76 | 72 | 5.0 | 8.0 | 0.00 | 0.17 | 0.17 | 80 | 1012.0 |
| 20260905214828 | 75 | 81 | 6.0 | 11.0 | 0.00 | 0.17 | 0.17 | 81 | 1011.8 |
| 20260905213345 | 75 | 89 | 5.0 | 11.0 | 0.00 | 0.17 | 0.17 | 83 | 1011.9 |
| 20260905211828 | 74 | 259 | 3.0 | 8.0 | 0.00 | 0.17 | 0.17 | 85 | 1011.8 |
| 20260905210349 | 74 | 79 | 4.0 | 9.0 | 0.00 | 0.17 | 0.17 | 84 | 1011.8 |
| 20260905204826 | 73 | 25 | 5.0 | 10.0 | 0.00 | 0.17 | 0.17 | 87 | 1011.8 |
| 20260905203347 | 72 | 84 | 3.0 | 7.0 | 0.01 | 0.17 | 0.17 | 92 | 1012.0 |
| 20260905201832 | 71 | 96 | 3.0 | 5.0 | 0.08 | 0.17 | 0.17 | 93 | 1012.1 |
| 20260905200331 | 70 | 72 | 4.0 | 6.0 | 0.12 | 0.17 | 0.17 | 94 | 1012.2 |
| 20260905194837 | 69 | 93 | 4.0 | 7.0 | 0.15 | 0.17 | 0.17 | 94 | 1012.2 |
| 20260905193332 | 69 | 26 | 3.0 | 9.0 | 0.15 | 0.15 | 0.15 | 94 | 1012.3 |
| 20260905191825 | 69 | 83 | 1.0 | 6.0 | 0.09 | 0.09 | 0.09 | 94 | 1012.3 |
| 20260905190342 | 69 | 79 | 3.0 | 8.0 | 0.05 | 0.05 | 0.05 | 94 | 1012.4 |
| 20260905184849 | 69 | 89 | 3.0 | 9.0 | 0.02 | 0.02 | 0.02 | 94 | 1012.5 |
| 20260905183323 | 69 | 75 | 4.0 | 9.0 | 0.00 | 0.00 | 0.00 | 92 | 1012.4 |
| 20260905181838 | 70 | 39 | 5.0 | 10.0 | 0.00 | 0.00 | 0.00 | 89 | 1012.5 |
| 20260905180335 | 71 | 83 | 4.0 | 7.0 | 0.00 | 0.00 | 0.00 | 88 | 1012.4 |
| 20260905174835 | 71 | 68 | 4.0 | 8.0 | 0.00 | 0.00 | 0.00 | 88 | 1012.4 |
| 20260905173333 | 71 | 75 | 6.0 | 8.0 | 0.00 | 0.00 | 0.00 | 87 | 1012.4 |
| 20260905171827 | 72 | 90 | 6.0 | 11.0 | 0.00 | 0.00 | 0.00 | 85 | 1012.3 |
| 20260905170327 | 73 | 101 | 3.0 | 9.0 | 0.00 | 0.00 | 0.00 | 85 | 1012.3 |
| 20260905164828 | 72 | 56 | 6.0 | 13.0 | 0.00 | 0.01 | 0.00 | 85 | 1012.2 |
| 20260905163348 | 72 | 74 | 4.0 | 11.0 | 0.00 | 0.01 | 0.00 | 86 | 1012.1 |
| 20260905161832 | 72 | 103 | 8.0 | 10.0 | 0.00 | 0.01 | 0.00 | 86 | 1012.1 |
| 20260905160333 | 72 | 41 | 6.0 | 9.0 | 0.00 | 0.01 | 0.00 | 85 | 1012.1 |
| 20260905154835 | 72 | 72 | 4.0 | 11.0 | 0.00 | 0.06 | 0.00 | 86 | 1012.1 |
| 20260905153331 | 71 | 91 | 7.0 | 10.0 | 0.00 | 0.06 | 0.00 | 86 | 1012.0 |
| 20260905151837 | 71 | 56 | 6.0 | 11.0 | 0.00 | 0.06 | 0.00 | 88 | 1011.8 |
| 20260905150354 | 71 | 72 | 5.0 | 9.0 | 0.00 | 0.06 | 0.00 | 88 | 1011.9 |
| 20260905144845 | 71 | 89 | 3.0 | 5.0 | 0.00 | 0.09 | 0.00 | 89 | 1011.9 |
| 20260905143341 | 71 | 108 | 8.0 | 11.0 | 0.00 | 0.09 | 0.00 | 89 | 1011.8 |
| 20260905141856 | 71 | 56 | 6.0 | 9.0 | 0.00 | 0.09 | 0.00 | 89 | 1011.7 |
| 20260905140329 | 71 | 294 | 4.0 | 9.0 | 0.00 | 0.09 | 0.00 | 90 | 1011.7 |
| 20260905134836 | 70 | 80 | 5.0 | 10.0 | 0.00 | 0.48 | 0.00 | 92 | 1011.4 |
| 20260905133324 | 70 | 101 | 6.0 | 10.0 | 0.00 | 0.48 | 0.00 | 93 | 1011.3 |
| 20260905131839 | 70 | 72 | 5.0 | 10.0 | 0.00 | 0.48 | 0.00 | 93 | 1011.5 |
| 20260905130336 | 71 | 77 | 5.0 | 10.0 | 0.00 | 0.48 | 0.00 | 93 | 1011.3 |
| 20260905124847 | 70 | 63 | 6.0 | 11.0 | 0.00 | 0.90 | 0.00 | 94 | 1011.2 |
| 20260905123324 | 70 | 101 | 7.0 | 15.0 | 0.00 | 0.90 | 0.00 | 94 | 1010.9 |
| 20260905121837 | 70 | 53 | 7.0 | 11.0 | 0.00 | 0.90 | 0.00 | 94 | 1010.7 |
| 20260905120337 | 70 | 86 | 7.0 | 11.0 | 0.00 | 0.90 | 0.00 | 94 | 1010.7 |
| 20260905114839 | 70 | 97 | 5.0 | 7.0 | 0.00 | 1.15 | 0.00 | 94 | 1010.7 |
| 20260905113340 | 70 | 94 | 4.0 | 7.0 | 0.00 | 1.15 | 0.00 | 94 | 1010.6 |
| 20260905111831 | 70 | 96 | 4.0 | 8.0 | 0.00 | 1.15 | 0.00 | 94 | 1010.2 |
| 20260905110331 | 70 | 96 | 4.0 | 10.0 | 0.00 | 1.15 | 0.00 | 94 | 1010.2 |
| 20260905104834 | 70 | 92 | 6.0 | 8.0 | 0.00 | 2.30 | 0.00 | 94 | 1010.2 |
| 20260905103332 | 70 | 82 | 3.0 | 5.0 | 0.00 | 2.30 | 0.00 | 94 | 1010.3 |